Location: Goettingen
(51.5300°N, 9.9433°E)
Time: 22:03:08
(UTC+02:00)

ISS - Pass Details

Date: 30 July 2021
Orbit: 419 x 421 km, 51.6° (Epoch: 28 July)

Event Time Altitude Azimuth Distance (km) Brightness Sun altitude
Rises 22:23:11 0° 281° (W) 2,372 1.1 -9.5°
Reaches altitude 10° 22:25:47 10° 260° (W) 1,504 -0.5 -9.8°
Maximum altitude 22:28:02 17° 219° (SW) 1,155 -1.6 -10.0°
Drops below altitude 10° 22:30:16 10° 177° (S) 1,497 -1.4 -10.3°
Enters shadow 22:30:17 10° 176° (S) 1,502 -1.4 -10.3°
